Regional Weather Roundup
Issued by NWS Newport/Morehead, NC

Home | Current Version | Previous Version | Text Only | Print | Product List | Glossary On
Versions: 1 2 3 4 5 6 7 8 9 10 11 12 13 14 15 16 17 18 19 20 21 22 23 24 25 26 27 28 29 30 31 32 33 34 35 36 37 38 39 40 41 42 43 44 45 46 47 48 49 50
286
ASUS42 KMHX 191125
RWRMHX
WEATHER ROUNDUP FOR EASTERN NORTH CAROLINA
NATIONAL WEATHER SERVICE NEWPORT/MOREHEAD CITY NC
700 AM EDT THU OCT 19 2017

NOTE: "FAIR" INDICATES FEW OR NO CLOUDS BELOW 12,000 FEET
WITH NO SIGNIFICANT WEATHER AND/OR OBSTRUCTIONS TO VISIBILITY

NCZ015>017-031-032-045>047-102-103-191200-
NORTH COAST

CITY           SKY/WX    TMP DP  RH WIND       PRES   REMARKS
EDENTON        CLEAR     54  52  94 CALM      30.29S
ELIZABETH CITY CLEAR     58  58 100 N6        30.28S
KITTY HAWK     SUNNY     65  56  71 CALM      30.26S
MANTEO         CLEAR    N/A N/A N/A E7        30.27F

$$

NCZ045>047-081-094-103-104-191200-
CENTRAL COAST

CITY           SKY/WX    TMP DP  RH WIND       PRES   REMARKS
FRISCO         CLEAR     67  63  87 NE7       30.25R

$$

NCZ095-097-098-100-101-191200-
SOUTHERN COAST

CITY           SKY/WX    TMP DP  RH WIND       PRES   REMARKS
BEAUFORT       CLEAR     62  60  93 N8        30.24S
CEDAR ISLAND   NOT AVBL
JACKSONVILLE   PTCLDY    57  57 100 N5        30.25S
PINEY ISLAND     N/A    N/A N/A N/A NE10      30.24S
WILMINGTON     MOCLDY    57  56  96 NE8       30.24S


$$

NCZ011>013-027>030-043-044-078>080-089-090>093-098-191200-
COASTAL PLAIN

CITY           SKY/WX    TMP DP  RH WIND       PRES   REMARKS
AHOSKIE        CLEAR     44  44 100 CALM      30.30S
CLINTON        CLEAR     51  51 100 CALM      30.28S
ELIZABETHTOWN  NOT AVBL
GOLDSBORO      CLEAR     51  49  95 W3        30.27F
GREENVILLE     CLEAR     46  46 100 CALM      30.29S FOG
HAVELOCK       PTCLDY    60  59  96 NE9       30.26S
KENANSVILLE    CLEAR     48  48 100 CALM      30.28S FOG
KINSTON        CLEAR     50  50 100 N3        30.29S
NEW BERN       PTCLDY    58  57  97 N5        30.27S
RICHLANDS      CLEAR     53  53 100 N3        30.26S
ROCKY MOUNT    CLEAR     45  45 100 CALM      30.30R FOG
WASHINGTON     CLEAR     51  50  97 N3        30.28S
WHITEVILLE     CLEAR     54  52  93 CALM      30.26R

$$

AMZ130-135-150-152-154-156-158-170-250-252-270-ANZ085-086-088-633-658-670-191200-
MARINE OBSERVATIONS

STATION/POSITION TIME  TEMP    WIND        PRES    WAVE   SWELL
                       AIR SEA DIR/SP/G            HT/PER HT/PER
                 (UTC) (F)     (DEG/KT/KT) (MB)    (FT/S) (FT/S)
CHESAPEAKE LIGHT NOT AVBL
64 E VA BEACH    1050   67 67   80/ 10/ 12 1025.7    3/ 8   3/ 8
DUCK             NOT AVBL
2 E DUCK         1100      69                N/A     3/ 9
OREGON INLET     NOT AVBL
13E OREGON INLT  1048      71                N/A     5/ 9   2/11
HATTERAS CG      NOT AVBL
DIAMOND BUOY     1050   74 81   60/ 12/ 16 1023.3    5/ 9   5/ 9
CAPE LOOKOUT     1100   64      10/ 12/ 15 1023.4
BEAUFORT LAB     NOT AVBL
30 SE NEW RVR IN 1108   71      40/ 17/ 21 1022.8
30 SE NEW RVR IN NOT AVBL
27 SE WRIGHTSVLE 1108   71 76   60/ 17/ 23 1022.7
5 SE WRIGHTSVLE  1108   67 74   40/ 16/ 23 1023.4
225 S CAPE HAT   1050   77 80   50/ 19/ 23 1019.2    8/ 8
41 SE CHARLESTON 1110   74 80   30/ 19/ 23 1021.1

$$




USA.gov is the U.S. government's official web portal to all federal, state and local government web resources and services.